| time (UTC) | temp F | wind direction | speed MPH | gust MPH | rain 1hr in | rain 24hr in | rain mn in | humidity % | barometer mb |
| 20260507012306 | 40 | 175 | 5.0 | 7.0 | 0.00 | 0.41 | 0.13 | 71 | 1015.7 |
| 20260507011305 | 40 | 142 | 4.0 | 6.0 | 0.00 | 0.41 | 0.13 | 69 | 1015.7 |
| 20260507010805 | 40 | 160 | 3.0 | 8.0 | 0.00 | 0.41 | 0.13 | 69 | 1015.7 |
| 20260507005805 | 40 | 171 | 5.0 | 9.0 | 0.00 | 0.41 | 0.13 | 68 | 1015.7 |
| 20260507005306 | 40 | 157 | 2.0 | 6.0 | 0.00 | 0.42 | 0.13 | 68 | 1015.7 |
| 20260507004304 | 40 | 152 | 6.0 | 9.0 | 0.00 | 0.42 | 0.13 | 68 | 1015.7 |
| 20260507003805 | 40 | 156 | 2.0 | 8.0 | 0.00 | 0.42 | 0.13 | 68 | 1015.7 |
| 20260507002805 | 40 | 174 | 6.0 | 12.0 | 0.00 | 0.42 | 0.13 | 69 | 1015.7 |
| 20260507002306 | 41 | 166 | 6.0 | 9.0 | 0.00 | 0.42 | 0.13 | 69 | 1015.7 |
| 20260507001805 | 41 | 157 | 3.0 | 6.0 | 0.00 | 0.42 | 0.13 | 69 | 1015.7 |
| 20260507001304 | 41 | 162 | 5.0 | 8.0 | 0.00 | 0.42 | 0.13 | 69 | 1015.7 |
| 20260507000804 | 41 | 182 | 7.0 | 9.0 | 0.00 | 0.42 | 0.13 | 68 | 1015.7 |
| 20260506235805 | 40 | 171 | 4.0 | 6.0 | 0.00 | 0.42 | 0.13 | 68 | 1015.7 |
| 20260506235306 | 40 | 184 | 4.0 | 7.0 | 0.00 | 0.42 | 0.13 | 68 | 1015.7 |
| 20260506234304 | 40 | 130 | 4.0 | 7.0 | 0.00 | 0.42 | 0.13 | 71 | 1015.7 |
| 20260506233804 | 40 | 190 | 4.0 | 10.0 | 0.00 | 0.42 | 0.13 | 69 | 1015.7 |
| 20260506233305 | 40 | 173 | 6.0 | 9.0 | 0.00 | 0.42 | 0.13 | 69 | 1015.7 |
| 20260506232805 | 41 | 229 | 4.0 | 7.0 | 0.00 | 0.42 | 0.13 | 70 | 1015.7 |
| 20260506231805 | 40 | 225 | 2.0 | 8.0 | 0.00 | 0.42 | 0.13 | 68 | 1015.7 |
| 20260506230805 | 41 | 173 | 5.0 | 9.0 | 0.00 | 0.42 | 0.13 | 71 | 1015.7 |
| 20260506225305 | 40 | 184 | 5.0 | 7.0 | 0.00 | 0.42 | 0.13 | 73 | 1015.7 |
| 20260506224305 | 39 | 147 | 5.0 | 8.0 | 0.00 | 0.43 | 0.13 | 73 | 1015.7 |
| 20260506223806 | 40 | 167 | 7.0 | 9.0 | 0.00 | 0.44 | 0.13 | 73 | 1015.7 |
| 20260506222306 | 39 | 221 | 3.0 | 7.0 | 0.00 | 0.44 | 0.13 | 74 | 1015.7 |
| 20260506220304 | 38 | 211 | 1.0 | 3.0 | 0.00 | 0.45 | 0.13 | 80 | 1015.7 |
| 20260506215805 | 38 | 170 | 1.0 | 5.0 | 0.00 | 0.45 | 0.13 | 80 | 1015.7 |
| 20260506215306 | 37 | 220 | 3.0 | 5.0 | 0.00 | 0.45 | 0.13 | 80 | 1015.7 |
| 20260506213805 | 38 | 160 | 3.0 | 7.0 | 0.00 | 0.47 | 0.13 | 82 | 1015.7 |
| 20260506213305 | 37 | 184 | 0.0 | 2.0 | 0.00 | 0.47 | 0.13 | 82 | 1015.7 |
| 20260506205306 | 35 | 184 | 2.0 | 3.0 | 0.00 | 0.51 | 0.13 | 83 | 1015.7 |
| 20260506204304 | 35 | 200 | 1.0 | 3.0 | 0.00 | 0.51 | 0.13 | 84 | 1015.7 |
| 20260506203305 | 35 | 136 | 2.0 | 6.0 | 0.00 | 0.51 | 0.13 | 84 | 1015.7 |
| 20260506202804 | 35 | 189 | 2.0 | 3.0 | 0.00 | 0.52 | 0.13 | 84 | 1015.7 |
| 20260506202306 | 35 | 225 | 2.0 | 3.0 | 0.00 | 0.52 | 0.13 | 81 | 1015.7 |
| 20260506201805 | 36 | 315 | 1.0 | 3.0 | 0.00 | 0.52 | 0.13 | 83 | 1015.7 |
| 20260506200804 | 35 | 319 | 1.0 | 2.0 | 0.00 | 0.53 | 0.13 | 83 | 1015.7 |
| 20260506193305 | 34 | 5 | 2.0 | 5.0 | 0.00 | 0.53 | 0.13 | 88 | 1015.7 |
| 20260506192306 | 34 | 350 | 1.0 | 5.0 | 0.00 | 0.53 | 0.13 | 86 | 1015.7 |
| 20260506191805 | 35 | 325 | 1.0 | 5.0 | 0.00 | 0.53 | 0.13 | 87 | 1015.7 |
| 20260506190805 | 34 | 226 | 1.0 | 3.0 | 0.00 | 0.53 | 0.13 | 87 | 1015.7 |
| 20260506185804 | 35 | 271 | 0.0 | 3.0 | 0.00 | 0.53 | 0.13 | 88 | 1015.7 |
| 20260506185307 | 35 | 289 | 3.0 | 6.0 | 0.00 | 0.53 | 0.13 | 88 | 1015.7 |
| 20260506184805 | 35 | 26 | 3.0 | 5.0 | 0.00 | 0.53 | 0.13 | 88 | 1015.7 |
| 20260506183804 | 34 | 346 | 3.0 | 5.0 | 0.01 | 0.53 | 0.13 | 88 | 1015.7 |
| 20260506183304 | 34 | 346 | 1.0 | 3.0 | 0.01 | 0.53 | 0.13 | 89 | 1015.7 |
| 20260506182306 | 34 | 348 | 3.0 | 7.0 | 0.01 | 0.53 | 0.13 | 90 | 1015.7 |
| 20260506181805 | 34 | 338 | 3.0 | 7.0 | 0.01 | 0.53 | 0.13 | 90 | 1015.7 |
| 20260506181304 | 33 | 336 | 4.0 | 6.0 | 0.01 | 0.54 | 0.13 | 91 | 1015.7 |
| 20260506180805 | 33 | 336 | 2.0 | 5.0 | 0.02 | 0.54 | 0.13 | 91 | 1015.7 |
| 20260506180305 | 34 | 336 | 2.0 | 6.0 | 0.02 | 0.54 | 0.13 | 91 | 1015.7 |
| 20260506174805 | 33 | 336 | 2.0 | 5.0 | 0.02 | 0.54 | 0.13 | 91 | 1015.4 |
| 20260506173304 | 33 | 336 | 1.0 | 6.0 | 0.02 | 0.54 | 0.12 | 92 | 1011.5 |
| 20260506172804 | 32 | 336 | 2.0 | 7.0 | 0.02 | 0.55 | 0.12 | 92 | 1011.5 |
| 20260506171805 | 32 | 18 | 5.0 | 8.0 | 0.02 | 0.55 | 0.12 | 92 | 1011.5 |
| 20260506171305 | 32 | 4 | 5.0 | 10.0 | 0.02 | 0.55 | 0.12 | 93 | 1011.5 |
| 20260506170804 | 32 | 25 | 4.0 | 9.0 | 0.02 | 0.54 | 0.11 | 92 | 1011.5 |
| 20260506163805 | 31 | 1 | 6.0 | 12.0 | 0.03 | 0.55 | 0.11 | 93 | 1011.5 |
| 20260506162804 | 31 | 353 | 7.0 | 13.0 | 0.02 | 0.55 | 0.10 | 93 | 1011.5 |
| 20260506161304 | 32 | 10 | 7.0 | 16.0 | 0.03 | 0.55 | 0.10 | 94 | 1011.5 |
| 20260506160805 | 32 | 13 | 6.0 | 14.0 | 0.02 | 0.54 | 0.09 | 94 | 1011.5 |
| 20260506155306 | 32 | 344 | 7.0 | 12.0 | 0.03 | 0.55 | 0.09 | 94 | 1011.5 |
| 20260506154804 | 33 | 341 | 5.0 | 10.0 | 0.03 | 0.55 | 0.09 | 94 | 1011.5 |
| 20260506154305 | 33 | 334 | 7.0 | 12.0 | 0.02 | 0.54 | 0.08 | 94 | 1011.5 |
| 20260506153304 | 32 | 337 | 5.0 | 13.0 | 0.02 | 0.54 | 0.08 | 94 | 1011.5 |
| 20260506152804 | 32 | 338 | 8.0 | 12.0 | 0.02 | 0.54 | 0.08 | 94 | 1011.5 |
| 20260506152306 | 32 | 331 | 9.0 | 13.0 | 0.02 | 0.54 | 0.08 | 94 | 1011.5 |
| 20260506151805 | 32 | 354 | 5.0 | 9.0 | 0.01 | 0.53 | 0.07 | 95 | 1011.5 |
| 20260506150305 | 32 | 351 | 0.0 | 0.0 | 0.00 | 0.52 | 0.06 | 95 | 1011.5 |
| 20260506145806 | 32 | 330 | 0.0 | 0.0 | 0.00 | 0.53 | 0.06 | 95 | 1011.5 |
| 20260506145306 | 32 | 5 | 0.0 | 0.0 | 0.00 | 0.53 | 0.06 | 95 | 1011.5 |
| 20260506144305 | 32 | 350 | 0.0 | 0.0 | 0.00 | 0.53 | 0.06 | 95 | 1011.5 |
| 20260506143305 | 32 | 346 | 0.0 | 0.0 | 0.00 | 0.54 | 0.06 | 95 | 1011.5 |
| 20260506142805 | 32 | 331 | 0.0 | 0.0 | 0.00 | 0.54 | 0.06 | 95 | 1011.5 |
| 20260506141304 | 32 | 13 | 0.0 | 0.0 | 0.00 | 0.54 | 0.06 | 95 | 1011.5 |
| 20260506140304 | 32 | 13 | 0.0 | 0.0 | 0.00 | 0.55 | 0.06 | 95 | 1011.5 |
| 20260506135306 | 32 | 13 | 0.0 | 0.0 | 0.00 | 0.56 | 0.06 | 95 | 1011.5 |
| 20260506134304 | 32 | 13 | 0.0 | 0.0 | 0.00 | 0.56 | 0.06 | 95 | 1011.5 |
| 20260506133305 | 32 | 14 | 0.0 | 0.0 | 0.00 | 0.57 | 0.06 | 95 | 1011.5 |
| 20260506132805 | 32 | 14 | 0.0 | 0.0 | 0.00 | 0.57 | 0.06 | 95 | 1011.5 |
| 20260506131804 | 32 | 14 | 0.0 | 0.0 | 0.00 | 0.57 | 0.06 | 95 | 1011.5 |
| 20260506131305 | 32 | 14 | 0.0 | 0.0 | 0.00 | 0.58 | 0.06 | 95 | 1011.5 |
| 20260506130805 | 32 | 14 | 0.0 | 0.0 | 0.00 | 0.58 | 0.06 | 95 | 1011.5 |
| 20260506130304 | 32 | 14 | 0.0 | 0.0 | 0.00 | 0.59 | 0.06 | 95 | 1011.5 |
| 20260506125805 | 32 | 14 | 0.0 | 0.0 | 0.00 | 0.59 | 0.06 | 95 | 1011.5 |
| 20260506125306 | 32 | 14 | 0.0 | 0.0 | 0.00 | 0.59 | 0.06 | 95 | 1011.5 |
| 20260506124805 | 32 | 14 | 0.0 | 0.0 | 0.00 | 0.60 | 0.06 | 96 | 1011.5 |
| 20260506123305 | 32 | 14 | 0.0 | 0.0 | 0.00 | 0.60 | 0.06 | 95 | 1011.5 |
| 20260506122805 | 32 | 14 | 0.0 | 0.0 | 0.00 | 0.60 | 0.06 | 95 | 1011.5 |
| 20260506122306 | 32 | 14 | 0.0 | 0.0 | 0.00 | 0.61 | 0.06 | 95 | 1011.5 |
| 20260506121306 | 32 | 14 | 0.0 | 0.0 | 0.00 | 0.61 | 0.06 | 95 | 1011.5 |
| 20260506120304 | 32 | 14 | 0.0 | 0.0 | 0.00 | 0.62 | 0.06 | 95 | 1011.5 |
| 20260506115805 | 32 | 14 | 0.0 | 0.0 | 0.00 | 0.62 | 0.06 | 95 | 1011.5 |
| 20260506115307 | 32 | 14 | 0.0 | 0.0 | 0.00 | 0.62 | 0.06 | 95 | 1011.5 |
| 20260506113804 | 32 | 14 | 0.0 | 0.0 | 0.00 | 0.64 | 0.06 | 95 | 1011.5 |
| 20260506113304 | 32 | 14 | 0.0 | 0.0 | 0.00 | 0.65 | 0.06 | 95 | 1011.5 |
| 20260506112805 | 32 | 14 | 0.0 | 0.0 | 0.00 | 0.65 | 0.06 | 95 | 1011.5 |
| 20260506112306 | 32 | 14 | 0.0 | 0.0 | 0.00 | 0.65 | 0.06 | 95 | 1011.5 |
| 20260506110804 | 32 | 14 | 0.0 | 0.0 | 0.00 | 0.66 | 0.06 | 95 | 1011.5 |
| 20260506110304 | 32 | 14 | 0.0 | 0.0 | 0.00 | 0.66 | 0.06 | 95 | 1011.5 |
| 20260506105804 | 32 | 14 | 0.0 | 0.0 | 0.00 | 0.66 | 0.06 | 95 | 1011.5 |
| 20260506105305 | 32 | 14 | 0.0 | 0.0 | 0.00 | 0.66 | 0.06 | 95 | 1011.5 |
| 20260506104804 | 32 | 14 | 0.0 | 0.0 | 0.00 | 0.66 | 0.06 | 95 | 1011.5 |
| 20260506102804 | 31 | 14 | 0.0 | 0.0 | 0.00 | 0.67 | 0.06 | 95 | 1011.5 |
| 20260506101305 | 32 | 14 | 0.0 | 0.0 | 0.00 | 0.68 | 0.06 | 95 | 1011.5 |
| 20260506095305 | 32 | 14 | 0.0 | 0.0 | 0.00 | 0.70 | 0.06 | 95 | 1011.5 |
| 20260506094804 | 32 | 14 | 0.0 | 0.0 | 0.01 | 0.71 | 0.06 | 95 | 1011.5 |
| 20260506094304 | 32 | 14 | 0.0 | 0.0 | 0.01 | 0.71 | 0.06 | 95 | 1011.5 |
| 20260506093804 | 32 | 14 | 0.0 | 0.0 | 0.01 | 0.71 | 0.06 | 95 | 1011.5 |
| 20260506092805 | 32 | 14 | 0.0 | 0.0 | 0.01 | 0.71 | 0.06 | 95 | 1011.5 |
| 20260506091805 | 32 | 14 | 0.0 | 0.0 | 0.01 | 0.71 | 0.06 | 95 | 1011.5 |
| 20260506091305 | 32 | 14 | 0.0 | 0.0 | 0.01 | 0.71 | 0.06 | 95 | 1011.5 |
| 20260506085804 | 32 | 14 | 0.0 | 0.0 | 0.01 | 0.71 | 0.06 | 95 | 1011.5 |
| 20260506085306 | 32 | 14 | 0.0 | 0.0 | 0.01 | 0.71 | 0.06 | 95 | 1011.5 |
| 20260506082805 | 32 | 14 | 0.0 | 0.0 | 0.01 | 0.72 | 0.05 | 95 | 1011.5 |
| 20260506080804 | 32 | 14 | 0.0 | 0.0 | 0.03 | 0.74 | 0.05 | 95 | 1011.5 |
| 20260506080304 | 32 | 13 | 0.0 | 0.0 | 0.04 | 0.74 | 0.05 | 95 | 1011.5 |
| 20260506073305 | 32 | 32 | 0.0 | 0.0 | 0.04 | 0.73 | 0.04 | 95 | 1008.1 |
| 20260506072804 | 32 | 34 | 0.0 | 0.0 | 0.04 | 0.73 | 0.04 | 95 | 1008.1 |
| 20260506070804 | 32 | 347 | 0.0 | 0.0 | 0.02 | 0.71 | 0.02 | 95 | 1008.1 |
| 20260506070304 | 32 | 0 | 0.0 | 0.0 | 0.01 | 0.70 | 0.01 | 95 | 1008.1 |
| 20260506061804 | 32 | 358 | 0.0 | 0.0 | 0.02 | 0.69 | 0.00 | 95 | 1008.1 |
| 20260506060817 | 32 | 355 | 0.0 | 0.0 | 0.03 | 0.69 | 0.00 | 95 | 1008.1 |
| 20260506051304 | 32 | 337 | 0.0 | 0.0 | 0.04 | 0.66 | 0.66 | 95 | 1008.1 |
| 20260506050805 | 32 | 337 | 1.0 | 2.0 | 0.04 | 0.66 | 0.66 | 95 | 1008.1 |
| 20260506044804 | 32 | 337 | 0.0 | 1.0 | 0.04 | 0.64 | 0.64 | 95 | 1008.1 |
| 20260506044304 | 32 | 337 | 1.0 | 2.0 | 0.04 | 0.64 | 0.64 | 95 | 1008.1 |
| 20260506043805 | 32 | 337 | 0.0 | 2.0 | 0.04 | 0.64 | 0.64 | 95 | 1008.1 |
| 20260506042804 | 32 | 311 | 1.0 | 2.0 | 0.03 | 0.64 | 0.63 | 95 | 1008.1 |
| 20260506041805 | 32 | 355 | 1.0 | 3.0 | 0.04 | 0.65 | 0.63 | 95 | 1008.1 |
| 20260506041304 | 32 | 6 | 2.0 | 3.0 | 0.03 | 0.64 | 0.62 | 95 | 1008.1 |
| 20260506040804 | 32 | 351 | 3.0 | 5.0 | 0.03 | 0.64 | 0.62 | 95 | 1008.1 |
| 20260506033304 | 32 | 325 | 2.0 | 3.0 | 0.04 | 0.64 | 0.60 | 95 | 1008.1 |
| 20260506032804 | 32 | 339 | 2.0 | 5.0 | 0.04 | 0.65 | 0.60 | 95 | 1008.1 |
| 20260506032305 | 32 | 346 | 2.0 | 5.0 | 0.04 | 0.64 | 0.59 | 95 | 1008.1 |
| 20260506030804 | 32 | 327 | 4.0 | 7.0 | 0.08 | 0.66 | 0.59 | 95 | 1008.1 |
| 20260506030304 | 32 | 309 | 2.0 | 5.0 | 0.10 | 0.67 | 0.59 | 95 | 1008.1 |
| 20260506025306 | 32 | 328 | 3.0 | 6.0 | 0.13 | 0.66 | 0.58 | 95 | 1008.1 |
| 20260506024304 | 32 | 321 | 4.0 | 6.0 | 0.15 | 0.65 | 0.57 | 95 | 1008.1 |
| 20260506023304 | 32 | 343 | 3.0 | 6.0 | 0.15 | 0.64 | 0.56 | 95 | 1008.1 |
| 20260506022805 | 32 | 329 | 3.0 | 7.0 | 0.15 | 0.64 | 0.56 | 95 | 1008.1 |
| 20260506022306 | 32 | 347 | 3.0 | 7.0 | 0.14 | 0.63 | 0.55 | 95 | 1008.1 |
| 20260506021805 | 32 | 341 | 2.0 | 3.0 | 0.13 | 0.62 | 0.54 | 95 | 1008.1 |
| 20260506020304 | 33 | 330 | 2.0 | 6.0 | 0.08 | 0.57 | 0.49 | 95 | 1008.1 |
| 20260506015805 | 33 | 329 | 3.0 | 6.0 | 0.06 | 0.55 | 0.47 | 95 | 1008.1 |
| 20260506015306 | 33 | 335 | 5.0 | 8.0 | 0.05 | 0.53 | 0.45 | 94 | 1008.1 |
| 20260506014304 | 33 | 353 | 4.0 | 9.0 | 0.02 | 0.50 | 0.42 | 94 | 1008.1 |
| 20260506012805 | 33 | 343 | 4.0 | 6.0 | 0.01 | 0.49 | 0.41 | 94 | 1008.1 |